Temp
83 86 80 80 80 80 80 80 80 79 79 79 79 79 78 78 79 79 79 79 79 79 79 79 79 79 79 79 79 79 79 79 80 81 81 81 81 81 80 80 83 87 80
85 85 80 80 79 80 80 80 79 79 79 78 79 78 78 78 79 79 79 79 79 79 79 79 79 79 79 79 79 79 79 79 79 80 81 81 81 81 80 80 81 83 79
85 85 84 79 79 80 80 79 79 78 78 78 78 78 78 78 78 78 78 78 79 79 78 78 79 79 79 79 79 79 80 79 79 80 80 90 89 81 80 80 80 79 79
84 84 84 79 79 80 80 79 79 78 78 78 78 78 78 78 78 78 79 79 79 79 78 78 79 78 79 79 79 79 79 80 80 80 89 89 89 81 80 79 79 79 79
83 83 83 79 79 80 79 79 78 78 78 78 78 78 78 78 78 78 78 79 79 79 79 78 78 78 79 80 79 79 79 79 80 86 90 90 89 83 79 79 79 78 79
84 85 81 79 79 80 79 78 78 78 78 78 78 78 78 78 78 78 78 78 79 79 79 78 77 78 78 79 78 78 77 79 83 89 86 84 88 79 79 79 79 78 78
84 85 84 79 79 79 79 78 78 78 78 78 78 78 78 78 78 78 78 79 79 79 79 78 77 78 78 78 77 77 77 79 89 87 85 85 84 77 78 78 78 77 77
84 85 84 79 79 79 79 78 78 77 78 78 77 78 78 78 78 78 78 78 78 78 78 78 78 77 77 77 77 77 76 79 85 86 86 85 78 77 77 77 76 76 77
84 84 85 86 82 79 78 78 77 77 77 77 77 77 78 78 78 78 78 78 78 78 78 78 77 77 77 77 76 76 76 77 87 85 85 84 77 77 77 77 77 76 76
83 84 84 84 86 85 84 78 77 77 77 77 77 77 76 76 77 77 77 77 77 78 77 77 77 77 76 76 75 75 76 78 86 85 85 80 77 77 77 77 76 76 76
79 82 84 84 84 84 86 82 78 77 77 77 78 76 77 82 82 83 77 77 77 78 77 77 77 76 76 75 75 75 78 84 84 79 75 75 75 76 76 76 76 75 75
78 81 83 82 79 83 83 83 83 83 83 81 82 80 84 80 81 82 78 75 75 77 77 77 75 75 80 84 82 78 84 83 77 76 77 76 76 76 76 76 75 75 74
81 80 82 81 78 82 83 81 81 82 81 81 79 81 80 82 82 84 84 82 81 77 82 81 81 83 81 83 81 81 82 83 81 82 78 75 75 75 75 75 74 74 73
80 80 80 81 76 79 82 81 80 80 80 81 80 78 79 81 80 80 82 80 79 81 79 80 80 79 79 80 81 81 82 82 83 83 79 75 74 74 74 74 73 73 72
80 80 79 79 78 76 78 80 80 80 80 81 80 80 81 80 78 80 79 80 79 80 77 69 78 79 78 79 80 79 80 80 80 82 81 75 74 74 74 74 73 73 72
80 79 81 80 77 76 78 78 79 79 80 80 81 81 78 79 77 80 78 79 79 76 78 73 70 78 78 79 78 77 78 79 79 79 82 79 74 74 74 74 74 73 73
82 81 78 79 79 78 78 78 79 80 81 80 80 77 78 77 76 72 79 78 77 77 76 70 69 76 77 78 77 77 76 75 77 77 79 80 78 73 74 74 74 73 73
82 80 79 82 80 78 78 77 79 79 80 80 80 80 78 76 76 75 77 78 78 77 77 71 73 76 76 76 75 76 76 75 75 74 75 77 78 79 74 73 73 73 73
81 80 79 79 80 77 76 77 74 73 76 79 77 77 76 77 77 75 75 76 75 78 76 76 75 75 74 74 73 74 75 75 74 76 73 74 75 76 77 74 73 73 73
80 80 79 78 77 76 73 74 74 70 74 74 77 77 77 78 76 71 77 75 76 76 75 77 74 75 75 75 77 74 73 73 73 72 73 75 75 75 75 75 77 76 73
78 77 77 76 73 72 69 68 67 68 70 73 75 75 76 76 71 72 77 75 75 75 74 73 74 71 73 74 74 73 73 73 73 75 75 75 74 74 75 75 76 78 78
77 77 76 76 73 75 71 70 70 73 74 75 76 72 71 69 70 74 74 75 71 74 71 72 71 73 74 73 73 73 69 71 73 74 76 75 75 75 75 75 75 75 76
76 76 75 74 74 74 74 73 71 68 67 67 66 70 65 68 74 73 73 73 72 72 74 71 71 70 73 72 71 73 68 67 72 75 72 75 74 74 76 75 75 75 74
77 77 75 74 73 74 73 73 71 70 69 73 75 74 69 72 73 74 73 72 71 74 71 72 72 71 69 71 71 72 70 72 69 68 72 73 74 73 73 76 75 72 74
77 76 75 74 73 74 74 75 75 73 70 68 74 71 71 71 72 73 72 72 71 72 70 70 69 68 71 71 72 71 69 71 70 69 68 71 72 75 76 75 76 75 74
78 77 77 75 74 74 74 74 73 73 70 69 73 72 73 74 73 71 72 71 71 71 70 70 69 68 69 70 71 69 71 71 70 69 68 69 70 73 75 75 74 75 75
MSLP
1015.24 1015.54 1016.40 1016.80 1017.05 1017.08 1017.01 1017.17 1017.32 1017.50 1017.67 1017.87 1018.07 1018.20 1018.26 1018.27 1018.20 1018.15 1018.06 1017.86 1017.85 1017.73 1017.63 1017.57 1017.50 1017.39 1017.20 1017.14 1017.07 1017.04 1017.00 1016.96 1016.94 1016.96 1017.03 1017.08 1017.08 1017.11 1017.20 1017.31 1016.98 1016.84 1017.32
1015.10 1015.74 1016.51 1016.95 1017.15 1017.14 1017.20 1017.28 1017.54 1017.83 1018.03 1018.29 1018.44 1018.47 1018.55 1018.54 1018.47 1018.43 1018.32 1018.24 1018.19 1018.12 1017.98 1017.86 1017.81 1017.74 1017.48 1017.40 1017.26 1017.16 1017.14 1017.10 1017.09 1017.11 1017.22 1017.22 1017.23 1017.29 1017.39 1017.47 1017.47 1017.51 1017.58
1015.46 1015.95 1016.52 1017.02 1017.18 1017.29 1017.47 1017.68 1017.69 1017.93 1018.16 1018.47 1018.66 1018.63 1018.73 1018.76 1018.70 1018.58 1018.57 1018.45 1018.45 1018.35 1018.26 1018.20 1018.07 1017.90 1017.62 1017.61 1017.51 1017.39 1017.06 1017.11 1017.23 1017.25 1017.25 1016.71 1016.88 1017.46 1017.52 1017.63 1017.81 1017.87 1017.86
1015.69 1016.12 1016.48 1016.99 1017.14 1017.33 1017.55 1017.84 1017.99 1018.26 1018.42 1018.57 1018.65 1018.85 1018.95 1018.89 1018.80 1018.73 1018.68 1018.51 1018.49 1018.43 1018.38 1018.35 1018.28 1018.01 1017.61 1017.53 1017.56 1017.53 1017.41 1017.25 1017.30 1017.34 1016.84 1016.77 1017.03 1017.65 1017.80 1017.88 1018.01 1018.08 1018.13
1015.71 1016.27 1016.64 1017.07 1017.16 1017.39 1017.74 1018.05 1018.21 1018.39 1018.53 1018.73 1018.85 1019.01 1019.11 1019.07 1019.06 1019.01 1018.88 1018.71 1018.67 1018.53 1018.45 1018.39 1018.31 1018.24 1017.96 1017.78 1017.84 1017.85 1017.78 1017.74 1017.63 1017.09 1016.87 1017.01 1017.12 1017.93 1018.06 1018.06 1018.15 1018.23 1018.28
1016.00 1016.35 1017.07 1017.44 1017.49 1017.68 1017.89 1018.10 1018.30 1018.52 1018.71 1018.87 1019.06 1019.30 1019.33 1019.23 1019.18 1019.22 1019.06 1018.97 1018.81 1018.60 1018.46 1018.37 1018.35 1018.32 1018.26 1018.20 1018.26 1018.21 1018.18 1018.13 1017.64 1017.40 1017.53 1017.83 1017.57 1018.22 1018.31 1018.37 1018.42 1018.64 1018.71
1016.22 1016.68 1017.15 1017.74 1017.73 1017.91 1018.16 1018.45 1018.67 1018.83 1019.04 1019.16 1019.32 1019.45 1019.50 1019.59 1019.41 1019.37 1019.21 1019.00 1018.87 1018.71 1018.59 1018.45 1018.43 1018.38 1018.43 1018.51 1018.47 1018.56 1018.56 1018.43 1017.74 1017.85 1018.06 1018.07 1018.38 1018.60 1018.78 1018.82 1018.85 1019.00 1019.12
1016.45 1016.78 1017.47 1017.87 1017.91 1018.05 1018.28 1018.68 1018.91 1019.11 1019.26 1019.42 1019.51 1019.61 1019.64 1019.63 1019.60 1019.56 1019.49 1019.31 1019.05 1018.85 1018.77 1018.62 1018.61 1018.65 1018.65 1018.88 1018.93 1019.01 1019.15 1018.82 1018.32 1018.29 1018.31 1018.53 1019.17 1019.13 1019.26 1019.31 1019.24 1019.29 1019.46
1016.57 1017.00 1017.27 1017.53 1017.84 1018.27 1018.56 1018.61 1018.92 1019.19 1019.38 1019.66 1019.78 1019.81 1019.89 1019.81 1019.78 1019.83 1019.76 1019.47 1019.22 1019.01 1019.10 1019.06 1018.96 1018.97 1019.10 1019.15 1019.28 1019.37 1019.56 1019.32 1018.42 1018.63 1018.63 1018.92 1019.64 1019.66 1019.74 1019.74 1019.76 1019.83 1019.92
1016.76 1016.90 1017.21 1017.55 1017.63 1018.03 1018.40 1018.90 1019.11 1019.24 1019.54 1019.73 1019.89 1020.03 1020.02 1020.09 1020.03 1020.00 1019.73 1019.60 1019.49 1019.33 1019.31 1019.43 1019.45 1019.41 1019.45 1019.66 1019.67 1019.72 1019.71 1019.50 1019.02 1018.96 1019.04 1019.88 1020.00 1020.04 1020.20 1020.26 1020.38 1020.41 1020.49
1017.12 1017.15 1017.25 1017.59 1017.91 1018.14 1018.28 1018.80 1019.18 1019.30 1019.57 1019.66 1019.78 1020.05 1020.09 1019.85 1019.89 1019.65 1020.01 1019.80 1019.80 1019.58 1019.66 1019.78 1019.97 1019.82 1019.83 1019.90 1020.04 1020.04 1019.80 1019.43 1019.51 1020.01 1020.40 1020.53 1020.63 1020.73 1020.78 1020.88 1020.96 1020.98 1021.03
1016.69 1017.00 1017.26 1017.60 1018.16 1018.34 1018.43 1018.68 1018.89 1019.10 1019.17 1019.47 1019.68 1019.89 1019.85 1019.98 1020.02 1019.89 1020.15 1020.18 1020.12 1019.89 1019.95 1020.14 1020.37 1020.24 1019.98 1019.65 1020.12 1020.12 1019.80 1020.08 1020.57 1020.54 1020.94 1020.88 1021.03 1021.16 1021.16 1021.24 1021.48 1021.46 1021.69
1016.39 1016.99 1017.33 1017.59 1018.05 1018.00 1018.26 1018.81 1019.05 1019.41 1019.58 1019.69 1019.75 1019.88 1019.95 1019.83 1020.04 1019.99 1019.92 1020.00 1020.18 1020.32 1020.04 1020.20 1020.19 1020.23 1020.28 1020.15 1020.24 1020.31 1020.21 1020.30 1020.51 1020.58 1021.35 1021.47 1021.50 1021.55 1021.60 1021.77 1021.91 1021.93 1022.09
1016.54 1017.02 1017.47 1017.59 1018.18 1018.29 1018.32 1018.74 1019.04 1019.30 1019.44 1019.50 1019.57 1019.68 1019.63 1019.60 1019.86 1020.05 1019.97 1020.07 1020.24 1020.16 1020.31 1020.31 1020.39 1020.67 1020.79 1020.74 1020.58 1020.59 1020.53 1020.61 1020.70 1020.85 1021.69 1021.83 1021.91 1022.00 1022.07 1022.28 1022.39 1022.53 1022.62
1016.56 1017.00 1017.43 1017.78 1018.16 1018.64 1018.68 1018.73 1018.95 1019.14 1019.25 1019.32 1019.47 1019.55 1019.63 1019.66 1019.94 1020.07 1020.07 1020.11 1020.10 1020.36 1020.51 1020.96 1020.50 1020.66 1020.98 1020.98 1020.93 1021.07 1021.01 1021.12 1021.30 1021.32 1021.66 1022.12 1022.26 1022.35 1022.45 1022.55 1022.75 1022.85 1022.97
1016.34 1016.94 1017.36 1017.68 1018.10 1018.40 1018.53 1018.73 1018.91 1019.23 1019.29 1019.46 1019.47 1019.59 1019.83 1019.76 1020.03 1020.01 1020.17 1020.09 1020.19 1020.65 1020.51 1020.84 1020.93 1020.63 1020.84 1020.96 1021.17 1021.41 1021.37 1021.42 1021.59 1021.72 1021.70 1022.16 1022.60 1022.67 1022.72 1022.88 1023.07 1023.19 1023.33
1015.89 1016.45 1016.94 1017.54 1017.70 1018.08 1018.39 1018.86 1018.87 1019.01 1019.26 1019.30 1019.40 1019.74 1019.76 1019.98 1020.05 1020.22 1020.08 1020.08 1020.36 1020.49 1020.62 1021.11 1021.08 1021.00 1021.04 1021.08 1021.31 1021.55 1021.76 1022.01 1022.03 1022.13 1022.08 1021.99 1022.53 1022.85 1022.91 1023.05 1023.22 1023.35 1023.48
1015.59 1015.95 1016.55 1016.94 1017.33 1017.81 1018.13 1018.80 1019.09 1019.17 1019.34 1019.24 1019.49 1019.83 1020.02 1020.00 1020.11 1020.27 1020.12 1020.00 1020.20 1020.41 1020.53 1021.00 1020.89 1020.97 1021.04 1021.20 1021.41 1021.58 1021.82 1022.19 1022.34 1022.52 1022.49 1022.41 1022.48 1022.59 1023.14 1023.34 1023.50 1023.63 1023.79
1015.14 1015.75 1016.20 1016.70 1017.50 1017.97 1018.24 1018.80 1019.25 1019.57 1019.66 1019.39 1019.51 1019.71 1019.91 1020.07 1020.16 1020.37 1020.24 1020.13 1020.35 1020.24 1020.57 1020.54 1020.81 1020.93 1021.17 1021.36 1021.58 1021.72 1021.84 1022.07 1022.42 1022.46 1022.73 1022.73 1022.85 1022.92 1022.95 1023.35 1023.56 1023.71 1023.81
1015.11 1015.48 1016.06 1016.88 1017.33 1017.97 1018.23 1018.51 1019.14 1019.64 1019.56 1019.81 1019.63 1019.78 1019.93 1019.95 1020.20 1020.52 1020.18 1020.28 1020.36 1020.27 1020.61 1020.57 1020.73 1020.96 1021.02 1021.07 1021.16 1021.55 1021.89 1022.03 1022.27 1022.46 1022.56 1022.60 1022.73 1022.98 1023.22 1023.29 1023.24 1023.37 1023.76
1015.01 1015.41 1015.96 1016.78 1017.59 1017.77 1018.34 1018.62 1018.77 1019.02 1019.56 1019.89 1019.90 1019.78 1019.92 1020.10 1020.39 1020.44 1020.20 1020.30 1020.37 1020.44 1020.54 1020.74 1020.75 1021.01 1021.06 1021.22 1021.17 1021.33 1021.61 1021.87 1021.89 1021.78 1022.00 1022.15 1022.36 1022.74 1022.90 1023.09 1023.06 1023.02 1023.09
1014.73 1015.17 1015.78 1016.51 1016.88 1017.28 1017.66 1018.06 1018.42 1018.60 1019.14 1019.37 1019.47 1019.86 1020.03 1020.26 1020.37 1020.28 1020.38 1020.35 1020.66 1020.46 1020.63 1020.68 1020.65 1020.57 1020.71 1021.15 1020.71 1020.70 1020.63 1021.06 1021.23 1021.31 1021.31 1021.56 1021.78 1022.16 1022.30 1022.60 1022.70 1022.87 1022.93
1014.49 1014.92 1015.44 1016.13 1016.47 1016.97 1017.41 1017.87 1018.38 1018.80 1019.33 1019.61 1019.87 1019.89 1019.96 1019.94 1019.85 1020.03 1020.23 1020.39 1020.67 1020.58 1020.41 1020.68 1020.78 1020.80 1020.39 1020.91 1021.09 1020.46 1020.33 1019.95 1020.16 1020.35 1020.81 1020.98 1021.26 1021.48 1021.60 1021.90 1022.15 1022.30 1022.51
1014.39 1014.84 1015.42 1015.83 1016.09 1016.82 1017.46 1017.78 1018.11 1018.54 1018.79 1018.90 1019.11 1019.46 1019.67 1019.68 1019.75 1019.75 1019.88 1020.09 1020.39 1020.39 1020.59 1020.59 1020.74 1020.81 1020.87 1020.49 1020.85 1020.80 1020.75 1020.46 1019.89 1019.66 1020.28 1020.42 1020.76 1020.96 1021.10 1021.08 1021.42 1021.82 1021.93
1014.28 1014.59 1015.13 1015.69 1015.98 1016.40 1016.88 1017.20 1017.62 1018.03 1018.48 1018.92 1018.94 1019.11 1019.28 1019.48 1019.68 1019.70 1019.74 1019.80 1019.90 1019.98 1020.23 1020.37 1020.50 1020.70 1020.70 1020.58 1020.32 1020.45 1020.62 1020.43 1020.45 1019.95 1019.43 1019.69 1020.15 1020.07 1020.17 1020.41 1020.59 1020.87 1021.23
1013.99 1014.43 1014.89 1015.12 1015.63 1016.26 1016.81 1017.13 1017.32 1017.57 1018.03 1018.44 1018.40 1018.64 1018.88 1019.11 1019.22 1019.45 1019.48 1019.62 1019.80 1019.78 1019.85 1019.91 1020.17 1020.37 1020.49 1020.51 1020.36 1020.39 1020.05 1019.76 1019.64 1019.68 1019.49 1019.35 1019.24 1019.52 1019.90 1020.20 1020.44 1020.35 1020.42
Wind_Speed
13 14 14 13 13 14 16 15 14 13 12 11 12 12 12 11 10 10 10 10 10 10 9 8 7 6 6 6 5 5 5 6 7 8 9 9 10 10 11 10 6 12 11
15 15 14 13 13 14 14 14 13 12 12 12 13 13 12 11 10 10 10 10 10 10 9 8 7 6 5 4 4 3 3 5 7 7 8 9 9 10 10 11 10 12 12
15 14 14 13 13 13 13 13 13 13 13 12 12 13 12 11 10 10 9 10 10 10 10 8 7 6 5 3 3 3 5 8 8 8 6 5 9 9 11 11 11 12 12
14 13 13 14 14 13 12 12 12 12 12 12 12 12 12 11 9 9 9 9 9 10 9 8 8 7 6 7 8 9 10 11 10 9 5 6 8 8 9 11 11 11 12
14 12 12 14 14 13 13 12 12 12 11 11 12 11 11 10 10 9 9 10 10 11 11 10 9 7 7 10 12 12 13 13 11 6 8 7 6 10 11 10 12 11 13
14 13 13 12 12 13 13 12 12 11 10 10 11 10 11 10 9 9 11 12 11 11 10 9 8 7 12 13 12 12 13 11 5 10 8 8 8 10 9 13 12 12 12
13 11 12 11 10 14 12 11 11 10 9 9 10 10 10 9 9 10 11 11 10 8 8 7 8 10 12 10 11 13 13 10 8 9 9 9 10 14 12 13 13 13 14
13 11 11 11 10 12 12 11 10 9 8 9 9 9 10 10 10 10 11 11 9 7 8 11 12 12 12 14 15 15 13 8 8 9 8 9 10 13 14 13 13 15 16
12 11 10 11 11 13 11 12 11 9 8 8 8 9 10 11 10 10 10 11 11 9 9 13 13 12 13 13 13 14 12 10 7 7 7 7 11 15 16 17 17 18 19
11 11 10 9 10 9 10 10 10 9 8 7 8 9 10 10 9 8 5 11 12 10 11 12 13 14 15 14 13 13 11 8 8 7 7 9 15 16 17 17 17 17 18
9 10 10 10 9 8 8 9 10 9 7 7 7 7 6 5 5 6 10 10 10 10 12 12 12 14 14 14 12 11 6 5 8 8 7 17 17 17 17 17 17 17 18
13 12 11 11 9 8 7 8 7 6 5 4 4 4 3 4 4 4 6 9 9 11 12 13 11 11 4 6 6 6 6 9 8 8 8 17 16 15 16 17 15 17 17
14 11 12 11 11 10 8 5 4 3 3 3 4 3 2 1 2 1 2 4 4 6 6 7 7 4 6 5 5 5 6 6 5 7 11 14 14 13 13 14 13 14 14
13 12 12 12 10 10 6 5 6 4 4 4 4 4 3 2 2 1 2 4 4 4 6 5 4 5 6 6 6 7 6 5 4 5 9 11 14 13 13 13 14 14 14
12 12 13 12 9 8 6 5 5 5 5 4 4 4 3 3 1 2 2 3 4 5 5 4 6 6 6 6 6 6 6 6 6 4 5 11 13 12 13 13 13 13 13
11 11 12 13 10 10 7 6 5 5 5 4 3 2 3 2 2 2 3 4 4 4 5 4 3 6 6 5 6 5 5 6 6 5 5 8 10 10 11 12 12 12 12
11 12 13 13 12 10 9 6 5 5 5 5 3 3 4 3 3 2 3 4 4 5 7 5 4 5 5 5 6 5 5 4 4 5 4 5 8 9 9 9 10 10 11
12 14 13 12 12 11 8 6 4 3 4 3 2 2 2 3 3 4 4 4 4 5 5 4 5 6 5 6 5 5 4 4 5 5 3 4 4 5 7 7 7 7 7
12 12 13 12 11 10 7 4 3 3 4 3 3 2 4 3 4 4 3 4 4 4 4 5 5 6 5 5 5 4 4 4 5 4 4 5 5 4 4 9 7 6 6
10 11 11 9 9 9 6 5 3 3 4 3 3 3 3 3 4 3 3 4 4 4 4 5 5 5 6 6 6 6 5 5 5 5 6 6 6 6 6 6 6 7 9
7 9 10 11 11 8 4 3 3 4 3 3 3 4 4 4 3 4 3 4 3 4 4 4 4 6 4 5 5 5 5 7 8 8 7 7 8 8 7 7 6 5 7
8 9 10 12 12 9 5 3 2 3 3 3 3 1 1 1 3 4 4 3 3 4 5 5 4 4 3 6 5 4 5 7 9 10 9 9 10 8 9 10 9 9 8
9 10 11 12 12 10 10 6 4 4 2 2 3 3 3 5 6 6 5 3 3 3 3 4 4 5 5 5 6 5 4 6 2 5 11 10 10 8 9 10 11 12 11
7 8 11 12 12 11 13 9 10 5 5 4 4 4 4 6 6 6 6 5 4 3 3 3 4 4 4 6 4 6 4 3 4 3 4 7 9 11 11 10 10 11 12
7 9 10 11 11 12 12 10 8 7 3 2 3 4 5 5 6 6 6 6 6 5 5 5 5 6 5 5 6 4 6 5 5 6 6 4 5 7 9 8 8 8 11
6 8 10 12 12 11 10 10 10 8 5 4 3 3 4 4 4 6 7 7 7 5 6 5 5 6 6 6 5 6 6 5 7 6 7 6 5 4 5 5 6 7 7
Wind_Direction
159 140 137 141 132 127 121 118 114 110 106 96 89 87 84 78 72 63 58 55 54 58 63 64 65 64 71 77 81 91 112 123 119 118 113 100 101 100 87 77 78 74 62
145 139 140 138 133 129 124 122 112 104 93 90 91 87 82 78 70 63 59 55 51 51 52 55 54 44 47 62 82 99 150 150 135 125 121 114 104 102 95 85 61 75 69
137 139 145 140 137 130 122 114 108 102 101 99 94 92 88 80 71 67 59 59 55 54 52 46 43 42 38 52 76 83 89 162 141 129 136 108 101 110 106 94 85 79 75
138 142 146 145 139 134 125 116 107 106 104 102 98 95 89 86 84 77 68 61 57 59 58 51 48 45 30 102 115 94 88 105 122 133 142 98 94 106 94 95 95 90 88
145 146 145 145 141 135 127 115 109 106 105 103 98 91 88 89 86 80 73 69 70 73 73 67 57 58 55 86 84 79 84 91 104 133 88 92 86 95 91 94 105 95 68
144 144 135 145 144 133 119 115 112 112 108 103 94 87 87 90 87 83 80 77 71 66 69 72 68 62 86 83 82 84 75 75 90 82 78 79 70 91 96 84 92 92 87
143 143 140 146 143 120 115 114 116 111 107 101 93 88 89 88 92 91 84 74 66 59 55 70 88 90 90 95 90 78 75 66 76 81 79 72 69 75 79 89 92 90 87
138 137 141 148 140 119 121 118 116 116 106 98 92 92 96 101 98 89 78 70 58 50 64 93 103 100 94 79 72 70 65 59 76 73 78 81 88 84 81 82 91 88 81
142 144 147 151 139 127 134 137 134 122 111 107 101 93 93 95 94 82 69 54 50 66 94 102 95 86 81 79 81 76 66 50 68 77 78 85 91 84 81 75 71 72 73
152 151 152 158 151 156 151 143 135 130 128 120 106 94 87 89 89 79 89 55 49 79 111 106 98 89 85 79 78 78 78 71 63 77 79 85 83 84 75 74 71 68 72
166 163 162 163 161 160 151 144 149 142 138 139 139 114 128 102 95 95 65 65 57 90 119 101 100 99 97 85 76 76 73 68 71 62 73 83 84 80 80 76 76 75 70
174 174 172 171 169 167 161 164 155 153 155 155 150 143 133 108 83 72 79 72 72 86 117 106 96 97 98 91 99 103 82 88 80 84 84 84 83 82 84 83 77 76 73
178 179 181 176 177 180 171 166 157 158 159 163 172 179 152 139 109 98 111 103 110 119 123 128 125 98 102 104 99 88 89 90 95 86 82 82 88 86 84 82 84 82 84
183 184 183 185 183 193 170 172 168 179 177 190 179 196 203 189 151 146 94 109 140 128 126 131 113 112 118 108 105 102 96 92 90 85 92 89 82 84 87 87 88 89 90
195 189 191 190 184 196 190 180 181 184 193 191 198 206 221 210 163 182 116 133 153 151 132 126 142 142 135 131 120 112 102 98 95 92 97 98 93 94 94 92 90 90 90
196 198 197 197 185 193 198 192 182 193 190 206 215 207 202 177 164 142 162 138 154 142 142 155 151 154 150 152 138 133 125 115 106 111 107 112 105 102 98 97 96 95 95
202 194 198 202 193 192 193 201 202 196 196 205 209 201 196 179 160 182 198 168 146 146 145 140 146 171 162 164 155 154 149 138 136 132 130 122 135 130 124 118 116 114 113
206 201 196 196 197 188 188 185 221 209 223 215 189 197 202 173 186 204 193 169 147 157 157 159 173 185 181 177 170 176 177 177 166 161 159 153 151 140 152 145 135 126 124
215 204 198 193 189 188 169 164 186 234 247 236 192 185 157 187 195 195 186 150 169 164 163 174 177 194 194 192 189 193 192 195 194 189 192 192 187 188 183 174 180 176 169
217 205 199 183 163 166 162 166 145 159 230 214 199 190 187 187 171 187 171 168 192 180 187 192 184 188 218 207 204 194 202 206 205 211 213 216 206 211 214 221 196 197 207
191 193 185 173 156 159 166 145 171 180 171 203 217 199 208 211 174 203 189 185 173 196 212 200 170 180 172 198 205 208 214 222 222 221 216 220 215 217 219 222 229 231 203
185 187 174 177 170 170 176 143 130 144 174 206 219 238 282 195 208 211 219 202 178 188 176 186 191 188 182 188 216 235 227 208 223 225 223 223 224 220 222 224 231 232 242
188 180 172 180 173 167 172 142 104 92 79 195 216 213 202 192 203 204 203 221 205 243 204 198 207 228 227 189 229 264 209 240 196 204 223 229 226 226 234 231 231 231 230
187 172 171 179 172 168 167 169 171 186 194 204 227 221 205 209 208 207 210 199 204 224 223 215 220 241 240 237 210 228 258 307 259 230 207 223 232 233 232 234 233 237 238
177 181 179 174 174 171 179 186 191 202 192 149 220 232 221 215 227 231 226 215 207 212 204 219 207 214 217 259 235 201 226 226 230 255 263 193 220 229 229 230 243 244 235
179 181 185 182 184 184 186 193 198 207 183 200 200 226 224 235 230 233 232 228 233 229 218 213 210 213 225 235 238 236 239 232 220 223 239 238 255 194 218 222 238 243 239